Time,TemperatureF,DewpointF,PressureIn,WindDirection,WindDirectionDegrees,WindSpeedMPH,WindSpeedGustMPH,Humidity,HourlyPrecipIn,Conditions,Clouds,dailyrainin,SoftwareType,DateUTC
2013-02-13 00:00:00,46.7,44.8,29.96,NNW,328,3.0,3.0,93,0.07,,---,0.12,VWS V14.01,2013-02-13 05:00:00,
2013-02-13 00:05:00,46.6,44.7,29.95,North,354,5.0,5.0,93,0.06,,---,0.00,VWS V14.01,2013-02-13 05:05:00,
2013-02-13 00:10:00,46.5,44.6,29.95,NW,326,5.0,6.0,93,0.06,,---,0.00,VWS V14.01,2013-02-13 05:10:00,
2013-02-13 00:15:00,46.4,44.5,29.95,NW,323,4.0,8.0,93,0.06,,---,0.00,VWS V14.01,2013-02-13 05:15:00,
2013-02-13 00:20:00,46.4,44.5,29.98,NW,318,4.0,7.0,93,0.06,,---,0.00,VWS V14.01,2013-02-13 05:20:00,
2013-02-13 00:25:00,46.4,44.5,29.94,NE,54,4.0,4.0,93,0.07,,---,0.01,VWS V14.01,2013-02-13 05:25:00,
2013-02-13 00:30:00,46.3,44.4,29.90,ESE,104,3.0,5.0,93,0.08,,---,0.02,VWS V14.01,2013-02-13 05:30:00,
2013-02-13 00:35:00,46.1,44.2,29.90,NE,43,3.0,7.0,93,0.09,,---,0.03,VWS V14.01,2013-02-13 05:35:00,
2013-02-13 00:40:00,46.0,44.1,29.91,NE,37,0.0,5.0,93,0.09,,---,0.03,VWS V14.01,2013-02-13 05:40:00,
2013-02-13 00:45:00,46.0,44.1,29.91,NNE,27,0.0,3.0,93,0.08,,---,0.03,VWS V14.01,2013-02-13 05:45:00,
2013-02-13 00:50:00,46.0,44.1,29.92,North,359,0.0,3.0,93,0.07,,---,0.03,VWS V14.01,2013-02-13 05:50:00,
2013-02-13 00:55:00,45.9,44.0,29.91,NE,34,0.0,1.0,93,0.06,,---,0.03,VWS V14.01,2013-02-13 05:55:00,
2013-02-13 01:00:00,45.8,43.9,29.92,North,9,0.0,1.0,93,0.05,,---,0.04,VWS V14.01,2013-02-13 06:00:00,
2013-02-13 01:05:00,45.8,43.9,29.91,NNE,27,0.0,2.0,93,0.04,,---,0.04,VWS V14.01,2013-02-13 06:05:00,
2013-02-13 01:10:00,45.8,43.9,29.90,NNE,32,0.0,2.0,93,0.04,,---,0.04,VWS V14.01,2013-02-13 06:10:00,
2013-02-13 01:15:00,45.8,43.9,29.90,NE,39,0.0,3.0,93,0.04,,---,0.04,VWS V14.01,2013-02-13 06:15:00,
2013-02-13 01:20:00,45.8,43.9,29.90,NNE,29,1.0,3.0,93,0.04,,---,0.04,VWS V14.01,2013-02-13 06:20:00,
2013-02-13 01:25:00,45.8,43.9,29.90,NE,37,0.0,3.0,93,0.04,,---,0.04,VWS V14.01,2013-02-13 06:25:00,
2013-02-13 01:30:00,45.8,43.6,29.90,NNE,25,2.0,4.0,92,0.03,,---,0.04,VWS V14.01,2013-02-13 06:30:00,
2013-02-13 01:35:00,45.9,43.4,29.90,NNE,25,0.0,6.0,91,0.02,,---,0.04,VWS V14.01,2013-02-13 06:35:00,
2013-02-13 01:40:00,46.0,43.5,29.89,NE,47,3.0,4.0,91,0.01,,---,0.04,VWS V14.01,2013-02-13 06:40:00,
2013-02-13 01:45:00,45.9,43.4,29.88,NE,43,4.0,6.0,91,0.01,,---,0.04,VWS V14.01,2013-02-13 06:45:00,
2013-02-13 01:50:00,46.0,43.2,29.88,NE,39,2.0,5.0,90,0.01,,---,0.04,VWS V14.01,2013-02-13 06:50:00,
2013-02-13 01:55:00,46.0,43.2,29.88,NNE,30,3.0,6.0,90,0.01,,---,0.04,VWS V14.01,2013-02-13 06:55:00,
2013-02-13 02:00:00,46.0,43.2,29.88,NE,47,4.0,6.0,90,0.01,,---,0.04,VWS V14.01,2013-02-13 07:00:00,
2013-02-13 02:05:00,46.0,43.2,29.87,ENE,64,4.0,6.0,90,0.00,,---,0.04,VWS V14.01,2013-02-13 07:05:00,
2013-02-13 02:10:00,46.0,43.2,29.88,NE,49,4.0,6.0,90,0.00,,---,0.04,VWS V14.01,2013-02-13 07:10:00,
2013-02-13 02:15:00,46.1,43.0,29.88,ENE,63,2.0,6.0,89,0.00,,---,0.04,VWS V14.01,2013-02-13 07:15:00,
2013-02-13 02:20:00,46.1,43.3,29.89,NNE,14,1.0,2.0,90,0.00,,---,0.04,VWS V14.01,2013-02-13 07:20:00,
2013-02-13 02:25:00,46.1,43.3,29.89,NNW,340,0.0,5.0,90,0.00,,---,0.04,VWS V14.01,2013-02-13 07:25:00,
2013-02-13 02:30:00,46.0,43.5,29.88,NNE,33,0.0,5.0,91,0.00,,---,0.04,VWS V14.01,2013-02-13 07:30:00,
2013-02-13 02:35:00,45.9,43.4,29.88,NE,44,3.0,4.0,91,0.00,,---,0.04,VWS V14.01,2013-02-13 07:35:00,
2013-02-13 02:40:00,46.0,43.5,29.87,NE,49,1.0,7.0,91,0.00,,---,0.04,VWS V14.01,2013-02-13 07:40:00,
2013-02-13 02:45:00,45.9,43.4,29.87,NE,43,1.0,3.0,91,0.00,,---,0.04,VWS V14.01,2013-02-13 07:45:00,
2013-02-13 02:50:00,45.8,43.3,29.87,NE,44,1.0,3.0,91,0.00,,---,0.04,VWS V14.01,2013-02-13 07:50:00,
2013-02-13 02:55:00,45.8,43.6,29.87,NNE,22,0.0,3.0,92,0.00,,---,0.04,VWS V14.01,2013-02-13 07:55:00,
2013-02-13 03:00:00,45.7,43.5,29.87,NE,47,0.0,3.0,92,0.00,,---,0.04,VWS V14.01,2013-02-13 08:00:00,
2013-02-13 03:05:00,45.7,43.2,29.87,NE,47,0.0,6.0,91,0.00,,---,0.04,VWS V14.01,2013-02-13 08:05:00,
2013-02-13 03:10:00,45.7,43.2,29.87,NE,44,3.0,4.0,91,0.00,,---,0.04,VWS V14.01,2013-02-13 08:10:00,
2013-02-13 03:15:00,45.7,42.9,29.86,ENE,61,2.0,4.0,90,0.00,,---,0.04,VWS V14.01,2013-02-13 08:15:00,
2013-02-13 03:20:00,45.6,42.5,29.86,ENE,68,0.0,3.0,89,0.00,,---,0.04,VWS V14.01,2013-02-13 08:20:00,
2013-02-13 03:25:00,45.6,42.5,29.86,NE,49,1.0,4.0,89,0.00,,---,0.04,VWS V14.01,2013-02-13 08:25:00,
2013-02-13 03:30:00,45.6,42.5,29.87,ENE,60,1.0,3.0,89,0.00,,---,0.04,VWS V14.01,2013-02-13 08:30:00,
2013-02-13 03:35:00,45.6,42.3,29.86,NE,36,3.0,5.0,88,0.00,,---,0.04,VWS V14.01,2013-02-13 08:35:00,
2013-02-13 03:41:00,45.6,42.3,29.87,NNE,32,0.0,5.0,88,0.00,,---,0.04,VWS V14.01,2013-02-13 08:41:00,
2013-02-13 03:46:00,45.5,42.2,29.86,NE,46,3.0,4.0,88,0.00,,---,0.04,VWS V14.01,2013-02-13 08:46:00,
2013-02-13 03:51:00,45.4,42.1,29.86,ENE,58,0.0,6.0,88,0.00,,---,0.04,VWS V14.01,2013-02-13 08:51:00,
2013-02-13 03:56:00,45.3,42.0,29.86,ENE,75,1.0,4.0,88,0.00,,---,0.04,VWS V14.01,2013-02-13 08:56:00,
2013-02-13 04:01:00,45.1,41.8,29.86,East,92,1.0,3.0,88,0.00,,---,0.04,VWS V14.01,2013-02-13 09:01:00,
2013-02-13 04:06:00,45.0,42.2,29.86,ENE,64,1.0,2.0,90,0.00,,---,0.04,VWS V14.01,2013-02-13 09:06:00,
2013-02-13 04:11:00,44.8,42.0,29.85,East,86,1.0,2.0,90,0.00,,---,0.04,VWS V14.01,2013-02-13 09:11:00,
2013-02-13 04:16:00,44.7,42.2,29.86,SE,125,0.0,1.0,91,0.00,,---,0.04,VWS V14.01,2013-02-13 09:16:00,
2013-02-13 04:21:00,44.6,42.1,29.86,SE,125,0.0,3.0,91,0.00,,---,0.04,VWS V14.01,2013-02-13 09:21:00,
2013-02-13 04:26:00,44.5,42.3,29.86,ESE,116,2.0,5.0,92,0.00,,---,0.04,VWS V14.01,2013-02-13 09:26:00,
2013-02-13 04:31:00,44.4,42.2,29.86,ESE,116,3.0,5.0,92,0.00,,---,0.04,VWS V14.01,2013-02-13 09:31:00,
2013-02-13 04:36:00,44.2,42.0,29.85,ESE,122,2.0,6.0,92,0.00,,---,0.04,VWS V14.01,2013-02-13 09:36:00,
2013-02-13 04:41:00,44.1,42.2,29.84,East,93,1.0,7.0,93,0.00,,---,0.04,VWS V14.01,2013-02-13 09:41:00,
2013-02-13 04:46:00,44.0,42.4,29.85,East,101,1.0,4.0,94,0.00,,---,0.04,VWS V14.01,2013-02-13 09:46:00,
2013-02-13 04:51:00,44.0,42.4,29.84,SE,132,4.0,5.0,94,0.00,,---,0.04,VWS V14.01,2013-02-13 09:51:00,
2013-02-13 04:56:00,44.0,42.4,29.84,ESE,113,1.0,4.0,94,0.00,,---,0.04,VWS V14.01,2013-02-13 09:56:00,
2013-02-13 05:01:00,43.9,42.3,29.85,SE,135,0.0,4.0,94,0.00,,---,0.04,VWS V14.01,2013-02-13 10:01:00,
2013-02-13 05:06:00,43.9,42.6,29.84,East,93,0.0,3.0,95,0.00,,---,0.04,VWS V14.01,2013-02-13 10:06:00,
2013-02-13 05:11:00,43.9,42.6,29.84,ENE,68,0.0,2.0,95,0.00,,---,0.04,VWS V14.01,2013-02-13 10:11:00,
2013-02-13 05:16:00,43.9,42.6,29.83,East,101,2.0,3.0,95,0.00,,---,0.04,VWS V14.01,2013-02-13 10:16:00,
2013-02-13 05:21:00,43.8,42.5,29.83,ENE,75,0.0,3.0,95,0.00,,---,0.04,VWS V14.01,2013-02-13 10:21:00,
2013-02-13 05:26:00,43.8,42.5,29.82,NE,39,0.0,3.0,95,0.00,,---,0.04,VWS V14.01,2013-02-13 10:26:00,
2013-02-13 05:31:00,43.8,42.5,29.83,ENE,60,1.0,5.0,95,0.00,,---,0.04,VWS V14.01,2013-02-13 10:31:00,
2013-02-13 05:36:00,43.8,42.5,29.83,ENE,77,0.0,4.0,95,0.00,,---,0.04,VWS V14.01,2013-02-13 10:36:00,
2013-02-13 05:41:00,43.8,42.5,29.83,NE,47,2.0,5.0,95,0.00,,---,0.04,VWS V14.01,2013-02-13 10:41:00,
2013-02-13 05:46:00,43.9,42.6,29.83,NE,39,0.0,2.0,95,0.00,,---,0.04,VWS V14.01,2013-02-13 10:46:00,
2013-02-13 05:51:00,43.8,42.5,29.82,ENE,70,2.0,5.0,95,0.00,,---,0.04,VWS V14.01,2013-02-13 10:51:00,
2013-02-13 05:56:00,43.8,42.2,29.82,ESE,118,1.0,5.0,94,0.00,,---,0.04,VWS V14.01,2013-02-13 10:56:00,
2013-02-13 06:01:00,43.8,42.2,29.82,NE,56,0.0,5.0,94,0.00,,---,0.04,VWS V14.01,2013-02-13 11:01:00,
2013-02-13 06:06:00,43.9,42.3,29.83,NE,43,3.0,5.0,94,0.00,,---,0.04,VWS V14.01,2013-02-13 11:06:00,
2013-02-13 06:11:00,43.9,42.3,29.82,NE,47,1.0,5.0,94,0.00,,---,0.04,VWS V14.01,2013-02-13 11:11:00,
2013-02-13 06:16:00,43.9,42.3,29.83,NE,50,0.0,4.0,94,0.00,,---,0.04,VWS V14.01,2013-02-13 11:16:00,
2013-02-13 06:21:00,43.9,42.3,29.82,ENE,65,0.0,4.0,94,0.00,,---,0.04,VWS V14.01,2013-02-13 11:21:00,
2013-02-13 06:26:00,43.9,42.3,29.82,ENE,74,2.0,3.0,94,0.00,,---,0.04,VWS V14.01,2013-02-13 11:26:00,
2013-02-13 06:31:00,43.9,42.3,29.82,NE,46,0.0,4.0,94,0.00,,---,0.04,VWS V14.01,2013-02-13 11:31:00,
2013-02-13 06:36:00,44.0,42.4,29.82,East,93,0.0,3.0,94,0.00,,---,0.04,VWS V14.01,2013-02-13 11:36:00,
2013-02-13 06:41:00,44.0,42.7,29.83,East,93,0.0,1.0,95,0.00,,---,0.04,VWS V14.01,2013-02-13 11:41:00,
2013-02-13 06:46:00,44.0,42.4,29.83,NE,34,0.0,1.0,94,0.00,,---,0.04,VWS V14.01,2013-02-13 11:46:00,
2013-02-13 06:51:00,44.0,42.4,29.83,NE,37,1.0,2.0,94,0.00,,---,0.04,VWS V14.01,2013-02-13 11:51:00,
2013-02-13 06:56:00,44.0,42.4,29.82,NE,43,2.0,4.0,94,0.00,,---,0.04,VWS V14.01,2013-02-13 11:56:00,
2013-02-13 07:01:00,44.0,42.4,29.81,ENE,72,4.0,6.0,94,0.00,,---,0.04,VWS V14.01,2013-02-13 12:01:00,
2013-02-13 07:06:00,44.0,42.4,29.82,North,9,1.0,4.0,94,0.00,,---,0.04,VWS V14.01,2013-02-13 12:06:00,
2013-02-13 07:11:00,44.0,42.7,29.82,NE,39,2.0,3.0,95,0.00,,---,0.04,VWS V14.01,2013-02-13 12:11:00,
2013-02-13 07:16:00,44.0,42.7,29.83,NNE,12,0.0,3.0,95,0.00,,---,0.04,VWS V14.01,2013-02-13 12:16:00,
2013-02-13 07:21:00,44.1,42.8,29.83,NW,326,1.0,2.0,95,0.00,,---,0.04,VWS V14.01,2013-02-13 12:21:00,
2013-02-13 07:26:00,44.1,42.8,29.82,NNE,19,1.0,2.0,95,0.00,,---,0.04,VWS V14.01,2013-02-13 12:26:00,
2013-02-13 07:31:00,44.1,42.8,29.82,NE,39,0.0,4.0,95,0.00,,---,0.04,VWS V14.01,2013-02-13 12:31:00,
2013-02-13 07:36:00,44.1,42.8,29.82,North,350,1.0,1.0,95,0.00,,---,0.04,VWS V14.01,2013-02-13 12:36:00,
2013-02-13 07:41:00,44.1,42.8,29.82,NE,47,0.0,0.0,95,0.00,,---,0.04,VWS V14.01,2013-02-13 12:41:00,
2013-02-13 07:46:00,44.1,42.8,29.82,NNE,31,0.0,3.0,95,0.00,,---,0.04,VWS V14.01,2013-02-13 12:46:00,
2013-02-13 07:51:00,44.1,42.8,29.82,NE,44,1.0,2.0,95,0.00,,---,0.04,VWS V14.01,2013-02-13 12:51:00,
2013-02-13 07:56:00,44.1,42.8,29.83,East,82,0.0,0.0,95,0.00,,---,0.04,VWS V14.01,2013-02-13 12:56:00,
2013-02-13 08:01:00,44.1,42.8,29.83,ENE,65,1.0,3.0,95,0.00,,---,0.04,VWS V14.01,2013-02-13 13:01:00,
2013-02-13 08:06:00,44.1,42.8,29.82,NE,45,2.0,3.0,95,0.00,,---,0.04,VWS V14.01,2013-02-13 13:06:00,
2013-02-13 08:11:00,44.1,42.8,29.80,ENE,60,0.0,0.0,95,0.00,,---,0.04,VWS V14.01,2013-02-13 13:11:00,
2013-02-13 08:16:00,44.1,42.8,29.82,ENE,67,0.0,1.0,95,0.00,,---,0.04,VWS V14.01,2013-02-13 13:16:00,
2013-02-13 08:21:00,44.1,42.8,29.80,ENE,67,3.0,5.0,95,0.00,,---,0.04,VWS V14.01,2013-02-13 13:21:00,
2013-02-13 08:26:00,44.1,42.8,29.78,NE,48,2.0,3.0,95,0.00,,---,0.04,VWS V14.01,2013-02-13 13:26:00,
2013-02-13 08:31:00,44.2,43.1,29.80,ESE,122,0.0,1.0,96,0.00,,---,0.04,VWS V14.01,2013-02-13 13:31:00,
2013-02-13 08:36:00,44.2,43.1,29.82,ESE,114,0.0,0.0,96,0.00,,---,0.04,VWS V14.01,2013-02-13 13:36:00,
2013-02-13 08:41:00,44.2,43.1,29.81,East,96,0.0,0.0,96,0.00,,---,0.04,VWS V14.01,2013-02-13 13:41:00,
2013-02-13 08:46:00,44.3,43.2,29.81,ESE,105,3.0,4.0,96,0.00,,---,0.04,VWS V14.01,2013-02-13 13:46:00,
2013-02-13 08:51:00,44.3,43.2,29.82,NNW,330,0.0,0.0,96,0.00,,---,0.04,VWS V14.01,2013-02-13 13:51:00,
2013-02-13 08:56:00,44.3,43.2,29.82,NE,34,0.0,1.0,96,0.00,,---,0.04,VWS V14.01,2013-02-13 13:56:00,
2013-02-13 09:01:00,44.3,43.2,29.81,SSE,149,1.0,2.0,96,0.00,,---,0.04,VWS V14.01,2013-02-13 14:01:00,
2013-02-13 09:06:00,44.3,43.2,29.84,East,84,4.0,4.0,96,0.00,,---,0.04,VWS V14.01,2013-02-13 14:06:00,
2013-02-13 09:11:00,44.4,43.3,29.83,East,91,0.0,0.0,96,0.00,,---,0.04,VWS V14.01,2013-02-13 14:11:00,
2013-02-13 09:16:00,44.4,43.3,29.81,East,87,0.0,0.0,96,0.00,,---,0.04,VWS V14.01,2013-02-13 14:16:00,
2013-02-13 09:21:00,44.4,43.3,29.82,East,99,1.0,1.0,96,0.00,,---,0.04,VWS V14.01,2013-02-13 14:21:00,
2013-02-13 09:26:00,44.5,43.4,29.82,ENE,71,1.0,1.0,96,0.00,,---,0.04,VWS V14.01,2013-02-13 14:26:00,
2013-02-13 09:31:00,44.5,43.4,29.82,East,92,3.0,3.0,96,0.01,,---,0.05,VWS V14.01,2013-02-13 14:31:00,
2013-02-13 09:36:00,44.5,43.4,29.79,East,82,2.0,2.0,96,0.01,,---,0.05,VWS V14.01,2013-02-13 14:36:00,
2013-02-13 09:41:00,44.5,43.4,29.78,East,86,1.0,1.0,96,0.01,,---,0.05,VWS V14.01,2013-02-13 14:41:00,
2013-02-13 09:46:00,44.6,43.5,29.82,NNE,13,0.0,0.0,96,0.01,,---,0.05,VWS V14.01,2013-02-13 14:46:00,
2013-02-13 09:51:00,44.6,43.5,29.81,ENE,71,0.0,0.0,96,0.01,,---,0.05,VWS V14.01,2013-02-13 14:51:00,
2013-02-13 09:56:00,44.6,43.5,29.79,ESE,105,2.0,2.0,96,0.01,,---,0.05,VWS V14.01,2013-02-13 14:56:00,
2013-02-13 10:01:00,44.7,43.6,29.80,NE,39,1.0,1.0,96,0.01,,---,0.05,VWS V14.01,2013-02-13 15:01:00,
2013-02-13 10:06:00,44.7,43.6,29.79,ESE,113,2.0,3.0,96,0.01,,---,0.05,VWS V14.01,2013-02-13 15:06:00,
2013-02-13 10:11:00,44.8,43.7,29.81,NNE,31,0.0,2.0,96,0.01,,---,0.05,VWS V14.01,2013-02-13 15:11:00,
2013-02-13 10:16:00,44.8,43.7,29.78,East,84,4.0,4.0,96,0.01,,---,0.05,VWS V14.01,2013-02-13 15:16:00,
2013-02-13 10:21:00,44.8,43.7,29.78,East,101,0.0,3.0,96,0.01,,---,0.05,VWS V14.01,2013-02-13 15:21:00,
2013-02-13 10:26:00,44.9,43.8,29.84,WNW,291,0.0,0.0,96,0.01,,---,0.05,VWS V14.01,2013-02-13 15:26:00,
2013-02-13 10:31:00,44.8,43.7,29.75,East,96,4.0,8.0,96,0.00,,---,0.05,VWS V14.01,2013-02-13 15:31:00,
2013-02-13 10:36:00,44.9,43.8,29.82,SSW,200,1.0,1.0,96,0.00,,---,0.05,VWS V14.01,2013-02-13 15:36:00,
2013-02-13 10:41:00,44.9,43.8,29.76,East,81,1.0,1.0,96,0.00,,---,0.05,VWS V14.01,2013-02-13 15:41:00,
2013-02-13 10:46:00,44.9,43.8,29.78,ESE,121,0.0,1.0,96,0.00,,---,0.05,VWS V14.01,2013-02-13 15:46:00,
2013-02-13 10:51:00,44.9,43.8,29.78,East,85,0.0,1.0,96,0.00,,---,0.05,VWS V14.01,2013-02-13 15:51:00,
2013-02-13 10:56:00,45.1,44.0,29.78,NNW,337,0.0,0.0,96,0.00,,---,0.05,VWS V14.01,2013-02-13 15:56:00,
2013-02-13 11:01:00,45.1,44.0,29.75,SE,124,1.0,1.0,96,0.01,,---,0.06,VWS V14.01,2013-02-13 16:01:00,
2013-02-13 11:06:00,45.2,44.1,29.78,SE,146,0.0,0.0,96,0.01,,---,0.06,VWS V14.01,2013-02-13 16:06:00,
2013-02-13 11:11:00,45.2,44.1,29.79,SSE,161,1.0,1.0,96,0.01,,---,0.06,VWS V14.01,2013-02-13 16:11:00,
2013-02-13 11:16:00,45.2,44.1,29.78,ESE,121,3.0,5.0,96,0.01,,---,0.06,VWS V14.01,2013-02-13 16:16:00,
2013-02-13 11:21:00,45.3,44.2,29.80,ENE,58,1.0,1.0,96,0.01,,---,0.06,VWS V14.01,2013-02-13 16:21:00,
2013-02-13 11:26:00,45.3,44.2,29.74,ENE,77,3.0,7.0,96,0.01,,---,0.06,VWS V14.01,2013-02-13 16:26:00,
2013-02-13 11:31:00,45.3,44.2,29.75,ENE,77,1.0,1.0,96,0.01,,---,0.06,VWS V14.01,2013-02-13 16:31:00,
2013-02-13 11:36:00,45.3,44.2,29.78,WNW,301,1.0,2.0,96,0.01,,---,0.06,VWS V14.01,2013-02-13 16:36:00,
2013-02-13 11:41:00,45.3,44.2,29.78,NE,36,0.0,2.0,96,0.01,,---,0.06,VWS V14.01,2013-02-13 16:41:00,
2013-02-13 11:46:00,45.4,44.3,29.77,SE,133,3.0,3.0,96,0.01,,---,0.06,VWS V14.01,2013-02-13 16:46:00,
2013-02-13 11:51:00,45.5,44.4,29.78,SSW,205,0.0,0.0,96,0.01,,---,0.06,VWS V14.01,2013-02-13 16:51:00,
2013-02-13 11:56:00,45.5,44.4,29.76,SSE,150,3.0,4.0,96,0.01,,---,0.06,VWS V14.01,2013-02-13 16:56:00,
2013-02-13 12:01:00,45.5,44.4,29.74,SE,134,3.0,5.0,96,0.00,,---,0.06,VWS V14.01,2013-02-13 17:01:00,
2013-02-13 12:06:00,45.6,44.5,29.73,SE,127,4.0,5.0,96,0.00,,---,0.06,VWS V14.01,2013-02-13 17:06:00,
2013-02-13 12:11:00,45.6,44.5,29.74,SE,142,2.0,3.0,96,0.00,,---,0.06,VWS V14.01,2013-02-13 17:11:00,
2013-02-13 12:16:00,45.8,45.0,29.74,SE,142,3.0,5.0,97,0.00,,---,0.06,VWS V14.01,2013-02-13 17:16:00,
2013-02-13 12:21:00,45.8,45.0,29.72,SSE,150,4.0,5.0,97,0.00,,---,0.06,VWS V14.01,2013-02-13 17:21:00,
2013-02-13 12:26:00,45.8,45.0,29.72,SE,136,1.0,3.0,97,0.00,,---,0.06,VWS V14.01,2013-02-13 17:26:00,
2013-02-13 12:31:00,45.9,45.1,29.73,South,169,4.0,5.0,97,0.00,,---,0.06,VWS V14.01,2013-02-13 17:31:00,
2013-02-13 12:36:00,45.9,45.1,29.74,SSW,207,1.0,1.0,97,0.00,,---,0.06,VWS V14.01,2013-02-13 17:36:00,
2013-02-13 12:41:00,46.0,45.2,29.72,South,177,4.0,4.0,97,0.00,,---,0.06,VWS V14.01,2013-02-13 17:41:00,
2013-02-13 12:47:00,46.0,45.2,29.73,SW,233,2.0,2.0,97,0.00,,---,0.06,VWS V14.01,2013-02-13 17:47:00,
2013-02-13 12:52:00,46.1,45.3,29.70,SE,142,1.0,2.0,97,0.00,,---,0.06,VWS V14.01,2013-02-13 17:52:00,
2013-02-13 12:57:00,46.0,45.2,29.70,SE,139,3.0,3.0,97,0.00,,---,0.06,VWS V14.01,2013-02-13 17:57:00,
2013-02-13 13:02:00,46.0,45.2,29.74,West,260,5.0,6.0,97,0.00,,---,0.06,VWS V14.01,2013-02-13 18:02:00,
2013-02-13 13:07:00,46.1,45.3,29.73,WSW,242,3.0,6.0,97,0.00,,---,0.06,VWS V14.01,2013-02-13 18:07:00,
2013-02-13 13:12:00,46.2,45.4,29.73,SSW,208,4.0,6.0,97,0.00,,---,0.06,VWS V14.01,2013-02-13 18:12:00,
2013-02-13 13:17:00,46.3,45.5,29.73,SSE,155,5.0,5.0,97,0.00,,---,0.06,VWS V14.01,2013-02-13 18:17:00,
2013-02-13 13:22:00,46.3,45.5,29.71,SW,229,5.0,5.0,97,0.00,,---,0.06,VWS V14.01,2013-02-13 18:22:00,
2013-02-13 13:27:00,46.5,45.7,29.70,South,172,5.0,6.0,97,0.00,,---,0.06,VWS V14.01,2013-02-13 18:27:00,
2013-02-13 13:32:00,46.5,45.7,29.72,SSE,155,2.0,6.0,97,0.00,,---,0.06,VWS V14.01,2013-02-13 18:32:00,
2013-02-13 13:37:00,46.5,45.7,29.71,South,189,2.0,5.0,97,0.00,,---,0.06,VWS V14.01,2013-02-13 18:37:00,
2013-02-13 13:42:00,46.5,45.7,29.72,SW,217,10.0,10.0,97,0.00,,---,0.06,VWS V14.01,2013-02-13 18:42:00,
2013-02-13 13:47:00,46.5,45.7,29.71,West,262,0.0,7.0,97,0.00,,---,0.06,VWS V14.01,2013-02-13 18:47:00,
2013-02-13 13:52:00,46.6,45.8,29.70,WSW,243,5.0,7.0,97,0.00,,---,0.06,VWS V14.01,2013-02-13 18:52:00,
2013-02-13 13:57:00,46.7,45.9,29.70,SW,236,5.0,5.0,97,0.00,,---,0.06,VWS V14.01,2013-02-13 18:57:00,
2013-02-13 14:02:00,46.8,46.0,29.72,West,262,1.0,6.0,97,0.00,,---,0.06,VWS V14.01,2013-02-13 19:02:00,
2013-02-13 14:07:00,46.9,46.1,29.71,West,262,2.0,6.0,97,0.00,,---,0.06,VWS V14.01,2013-02-13 19:07:00,
2013-02-13 14:12:00,47.0,46.2,29.71,SW,224,7.0,9.0,97,0.00,,---,0.06,VWS V14.01,2013-02-13 19:12:00,
2013-02-13 14:17:00,47.0,46.2,29.71,West,271,5.0,8.0,97,0.00,,---,0.06,VWS V14.01,2013-02-13 19:17:00,
2013-02-13 14:22:00,47.0,46.2,29.71,WNW,283,3.0,10.0,97,0.00,,---,0.06,VWS V14.01,2013-02-13 19:22:00,
2013-02-13 14:27:00,47.1,46.3,29.70,West,273,3.0,6.0,97,0.00,,---,0.06,VWS V14.01,2013-02-13 19:27:00,
2013-02-13 14:32:00,47.2,46.4,29.71,WSW,246,6.0,10.0,97,0.00,,---,0.06,VWS V14.01,2013-02-13 19:32:00,
2013-02-13 14:37:00,47.3,46.5,29.71,West,260,5.0,8.0,97,0.00,,---,0.06,VWS V14.01,2013-02-13 19:37:00,
2013-02-13 14:42:00,47.4,46.6,29.73,SW,226,3.0,8.0,97,0.00,,---,0.06,VWS V14.01,2013-02-13 19:42:00,
2013-02-13 14:47:00,47.5,46.7,29.72,West,280,4.0,14.0,97,0.00,,---,0.06,VWS V14.01,2013-02-13 19:47:00,
2013-02-13 14:52:00,47.6,46.8,29.71,WSW,255,8.0,13.0,97,0.00,,---,0.06,VWS V14.01,2013-02-13 19:52:00,
2013-02-13 14:57:00,47.7,46.9,29.72,WSW,245,6.0,12.0,97,0.00,,---,0.06,VWS V14.01,2013-02-13 19:57:00,
2013-02-13 15:02:00,47.7,46.9,29.73,WSW,239,13.0,21.0,97,0.00,,---,0.06,VWS V14.01,2013-02-13 20:02:00,
2013-02-13 15:07:00,47.8,46.7,29.73,WSW,238,8.0,16.0,96,0.00,,---,0.06,VWS V14.01,2013-02-13 20:07:00,
2013-02-13 15:12:00,47.9,46.5,29.71,West,276,6.0,17.0,95,0.00,,---,0.06,VWS V14.01,2013-02-13 20:12:00,
2013-02-13 15:17:00,47.9,46.5,29.71,WSW,256,7.0,17.0,95,0.00,,---,0.06,VWS V14.01,2013-02-13 20:17:00,
2013-02-13 15:22:00,48.0,46.6,29.72,WSW,249,12.0,12.0,95,0.00,,---,0.06,VWS V14.01,2013-02-13 20:22:00,
2013-02-13 15:27:00,48.0,46.6,29.73,WSW,248,10.0,17.0,95,0.00,,---,0.06,VWS V14.01,2013-02-13 20:27:00,
2013-02-13 15:32:00,48.1,46.5,29.72,SW,235,10.0,12.0,94,0.00,,---,0.06,VWS V14.01,2013-02-13 20:32:00,
2013-02-13 15:38:00,48.2,46.6,29.72,WSW,242,6.0,16.0,94,0.00,,---,0.06,VWS V14.01,2013-02-13 20:38:00,
2013-02-13 15:43:00,48.3,46.7,29.72,WSW,243,1.0,12.0,94,0.00,,---,0.06,VWS V14.01,2013-02-13 20:43:00,
2013-02-13 15:48:00,48.4,46.5,29.72,West,259,2.0,10.0,93,0.00,,---,0.06,VWS V14.01,2013-02-13 20:48:00,
2013-02-13 15:53:00,48.5,46.6,29.72,WSW,246,1.0,17.0,93,0.00,,---,0.06,VWS V14.01,2013-02-13 20:53:00,
2013-02-13 15:58:00,48.7,46.5,29.73,WNW,284,5.0,18.0,92,0.00,,---,0.06,VWS V14.01,2013-02-13 20:58:00,
2013-02-13 16:03:00,48.8,46.6,29.73,West,259,5.0,15.0,92,0.00,,---,0.06,VWS V14.01,2013-02-13 21:03:00,
2013-02-13 16:08:00,48.8,46.3,29.72,West,280,3.0,11.0,91,0.00,,---,0.06,VWS V14.01,2013-02-13 21:08:00,
2013-02-13 16:13:00,48.9,46.4,29.72,SW,231,6.0,12.0,91,0.00,,---,0.06,VWS V14.01,2013-02-13 21:13:00,
2013-02-13 16:18:00,48.9,46.4,29.72,WSW,245,8.0,12.0,91,0.00,,---,0.06,VWS V14.01,2013-02-13 21:18:00,
2013-02-13 16:23:00,49.0,46.5,29.72,SW,225,8.0,19.0,91,0.00,,---,0.06,VWS V14.01,2013-02-13 21:23:00,
2013-02-13 16:28:00,49.0,46.2,29.73,WSW,257,8.0,15.0,90,0.00,,---,0.06,VWS V14.01,2013-02-13 21:28:00,
2013-02-13 16:33:00,49.0,46.2,29.72,WSW,240,8.0,8.0,90,0.00,,---,0.06,VWS V14.01,2013-02-13 21:33:00,
2013-02-13 16:38:00,49.0,46.2,29.70,SW,232,4.0,14.0,90,0.00,,---,0.06,VWS V14.01,2013-02-13 21:38:00,
2013-02-13 16:43:00,48.9,46.1,29.73,WSW,249,8.0,12.0,90,0.00,,---,0.06,VWS V14.01,2013-02-13 21:43:00,
2013-02-13 16:48:00,49.0,46.2,29.73,West,265,6.0,12.0,90,0.00,,---,0.06,VWS V14.01,2013-02-13 21:48:00,
2013-02-13 16:53:00,49.0,46.2,29.73,SW,231,6.0,10.0,90,0.00,,---,0.06,VWS V14.01,2013-02-13 21:53:00,
2013-02-13 16:58:00,49.1,46.3,29.73,WSW,242,9.0,12.0,90,0.00,,---,0.06,VWS V14.01,2013-02-13 21:58:00,
2013-02-13 17:03:00,49.0,46.2,29.73,SSW,208,5.0,15.0,90,0.00,,---,0.06,VWS V14.01,2013-02-13 22:03:00,
2013-02-13 17:08:00,49.0,45.9,29.72,West,266,6.0,12.0,89,0.00,,---,0.06,VWS V14.01,2013-02-13 22:08:00,
2013-02-13 17:13:00,48.9,45.8,29.73,SW,226,4.0,11.0,89,0.00,,---,0.06,VWS V14.01,2013-02-13 22:13:00,
2013-02-13 17:18:00,48.9,45.8,29.72,WNW,283,4.0,11.0,89,0.00,,---,0.06,VWS V14.01,2013-02-13 22:18:00,
2013-02-13 17:23:00,48.9,45.8,29.73,West,276,5.0,8.0,89,0.00,,---,0.06,VWS V14.01,2013-02-13 22:23:00,
2013-02-13 17:28:00,48.8,45.7,29.74,West,264,5.0,13.0,89,0.00,,---,0.06,VWS V14.01,2013-02-13 22:28:00,
2013-02-13 17:33:00,48.9,45.8,29.74,SW,221,9.0,13.0,89,0.00,,---,0.06,VWS V14.01,2013-02-13 22:33:00,
2013-02-13 17:38:00,48.9,45.8,29.75,SW,233,0.0,5.0,89,0.00,,---,0.06,VWS V14.01,2013-02-13 22:38:00,
2013-02-13 17:43:00,48.9,45.8,29.76,WSW,253,10.0,11.0,89,0.00,,---,0.06,VWS V14.01,2013-02-13 22:43:00,
2013-02-13 17:48:00,48.9,45.8,29.76,West,264,7.0,9.0,89,0.00,,---,0.06,VWS V14.01,2013-02-13 22:48:00,
2013-02-13 17:53:00,48.7,45.6,29.76,West,273,4.0,9.0,89,0.00,,---,0.06,VWS V14.01,2013-02-13 22:53:00,
2013-02-13 17:58:00,48.7,45.9,29.75,WSW,255,4.0,9.0,90,0.00,,---,0.06,VWS V14.01,2013-02-13 22:58:00,
2013-02-13 18:03:00,48.6,45.8,29.75,West,269,5.0,9.0,90,0.00,,---,0.06,VWS V14.01,2013-02-13 23:03:00,
2013-02-13 18:08:00,48.6,45.8,29.75,WSW,256,7.0,7.0,90,0.00,,---,0.06,VWS V14.01,2013-02-13 23:08:00,
2013-02-13 18:13:00,48.6,45.8,29.76,SW,226,1.0,9.0,90,0.00,,---,0.06,VWS V14.01,2013-02-13 23:13:00,
2013-02-13 18:18:00,48.6,45.8,29.76,West,267,7.0,7.0,90,0.00,,---,0.06,VWS V14.01,2013-02-13 23:18:00,
2013-02-13 18:23:00,48.6,45.8,29.77,WNW,283,5.0,9.0,90,0.00,,---,0.06,VWS V14.01,2013-02-13 23:23:00,
2013-02-13 18:28:00,48.6,45.8,29.76,WSW,257,5.0,8.0,90,0.00,,---,0.06,VWS V14.01,2013-02-13 23:28:00,
2013-02-13 18:33:00,48.6,45.8,29.76,West,266,3.0,6.0,90,0.00,,---,0.06,VWS V14.01,2013-02-13 23:33:00,
2013-02-13 18:38:00,48.5,45.7,29.76,WSW,239,1.0,7.0,90,0.00,,---,0.06,VWS V14.01,2013-02-13 23:38:00,
2013-02-13 18:43:00,48.5,45.7,29.76,WNW,291,5.0,7.0,90,0.00,,---,0.06,VWS V14.01,2013-02-13 23:43:00,
2013-02-13 18:48:00,48.5,45.7,29.76,WSW,250,7.0,7.0,90,0.00,,---,0.06,VWS V14.01,2013-02-13 23:48:00,
2013-02-13 18:53:00,48.5,45.7,29.76,WNW,289,0.0,7.0,90,0.00,,---,0.06,VWS V14.01,2013-02-13 23:53:00,
2013-02-13 18:58:00,48.5,45.7,29.76,WSW,246,2.0,2.0,90,0.00,,---,0.06,VWS V14.01,2013-02-13 23:58:00,
2013-02-13 19:03:00,48.6,45.8,29.77,WNW,295,2.0,10.0,90,0.00,,---,0.06,VWS V14.01,2013-02-14 00:03:00,
2013-02-13 19:08:00,48.6,45.8,29.77,SSE,160,0.0,3.0,90,0.00,,---,0.06,VWS V14.01,2013-02-14 00:08:00,
2013-02-13 19:14:00,48.5,45.7,29.78,West,281,0.0,1.0,90,0.00,,---,0.06,VWS V14.01,2013-02-14 00:14:00,
2013-02-13 19:18:00,48.5,45.7,29.78,West,274,2.0,5.0,90,0.00,,---,0.06,VWS V14.01,2013-02-14 00:18:00,
2013-02-13 19:24:00,48.4,45.6,29.78,WSW,245,2.0,4.0,90,0.00,,---,0.06,VWS V14.01,2013-02-14 00:24:00,
2013-02-13 19:29:00,48.3,45.5,29.79,NW,308,1.0,6.0,90,0.00,,---,0.06,VWS V14.01,2013-02-14 00:29:00,
2013-02-13 19:34:00,48.2,45.7,29.79,NW,316,3.0,5.0,91,0.00,,---,0.06,VWS V14.01,2013-02-14 00:34:00,
2013-02-13 19:39:00,48.1,45.6,29.79,WNW,291,3.0,5.0,91,0.00,,---,0.06,VWS V14.01,2013-02-14 00:39:00,
2013-02-13 19:44:00,48.0,45.5,29.79,WNW,290,2.0,5.0,91,0.00,,---,0.06,VWS V14.01,2013-02-14 00:44:00,
2013-02-13 19:49:00,48.0,45.5,29.79,WNW,291,3.0,4.0,91,0.00,,---,0.06,VWS V14.01,2013-02-14 00:49:00,
2013-02-13 19:54:00,48.0,45.5,29.79,WNW,287,2.0,4.0,91,0.00,,---,0.06,VWS V14.01,2013-02-14 00:54:00,
2013-02-13 19:59:00,48.0,45.5,29.80,West,264,0.0,4.0,91,0.00,,---,0.06,VWS V14.01,2013-02-14 00:59:00,
2013-02-13 20:04:00,47.9,45.4,29.80,WNW,297,0.0,4.0,91,0.00,,---,0.06,VWS V14.01,2013-02-14 01:04:00,
2013-02-13 20:09:00,47.9,45.4,29.80,WNW,300,0.0,4.0,91,0.00,,---,0.06,VWS V14.01,2013-02-14 01:09:00,
2013-02-13 20:14:00,47.8,45.3,29.81,WNW,292,1.0,4.0,91,0.00,,---,0.06,VWS V14.01,2013-02-14 01:14:00,
2013-02-13 20:19:00,47.8,45.3,29.80,WNW,303,1.0,4.0,91,0.00,,---,0.06,VWS V14.01,2013-02-14 01:19:00,
2013-02-13 20:24:00,47.7,45.2,29.80,West,266,2.0,6.0,91,0.00,,---,0.06,VWS V14.01,2013-02-14 01:24:00,
2013-02-13 20:29:00,47.7,45.5,29.80,West,278,2.0,6.0,92,0.00,,---,0.06,VWS V14.01,2013-02-14 01:29:00,
2013-02-13 20:34:00,47.7,45.5,29.81,West,259,3.0,8.0,92,0.00,,---,0.06,VWS V14.01,2013-02-14 01:34:00,
2013-02-13 20:39:00,47.9,45.4,29.80,WSW,251,2.0,7.0,91,0.00,,---,0.06,VWS V14.01,2013-02-14 01:39:00,
2013-02-13 20:44:00,48.0,45.5,29.81,West,277,7.0,9.0,91,0.00,,---,0.06,VWS V14.01,2013-02-14 01:44:00,
2013-02-13 20:49:00,48.3,45.5,29.81,WNW,289,4.0,14.0,90,0.00,,---,0.06,VWS V14.01,2013-02-14 01:49:00,
2013-02-13 20:54:00,48.6,45.5,29.81,West,276,0.0,8.0,89,0.00,,---,0.06,VWS V14.01,2013-02-14 01:54:00,
2013-02-13 20:59:00,48.5,45.4,29.82,WSW,253,5.0,10.0,89,0.00,,---,0.06,VWS V14.01,2013-02-14 01:59:00,
2013-02-13 21:04:00,48.5,45.4,29.81,WNW,295,2.0,7.0,89,0.00,,---,0.06,VWS V14.01,2013-02-14 02:04:00,
2013-02-13 21:09:00,48.4,45.3,29.82,WSW,255,2.0,7.0,89,0.00,,---,0.06,VWS V14.01,2013-02-14 02:09:00,
2013-02-13 21:14:00,48.3,45.2,29.83,WSW,252,5.0,9.0,89,0.00,,---,0.06,VWS V14.01,2013-02-14 02:14:00,
2013-02-13 21:19:00,48.3,45.2,29.83,WNW,290,6.0,10.0,89,0.00,,---,0.06,VWS V14.01,2013-02-14 02:19:00,
2013-02-13 21:24:00,48.3,45.2,29.83,WNW,294,4.0,9.0,89,0.00,,---,0.06,VWS V14.01,2013-02-14 02:24:00,
2013-02-13 21:29:00,48.1,45.0,29.83,West,265,3.0,11.0,89,0.00,,---,0.06,VWS V14.01,2013-02-14 02:29:00,
2013-02-13 21:34:00,48.0,45.2,29.83,West,276,3.0,7.0,90,0.00,,---,0.06,VWS V14.01,2013-02-14 02:34:00,
2013-02-13 21:39:00,47.9,45.1,29.84,NW,306,1.0,5.0,90,0.00,,---,0.06,VWS V14.01,2013-02-14 02:39:00,
2013-02-13 21:44:00,47.8,45.0,29.85,WNW,300,2.0,7.0,90,0.00,,---,0.06,VWS V14.01,2013-02-14 02:44:00,
2013-02-13 21:49:00,47.8,45.0,29.85,NW,312,1.0,3.0,90,0.00,,---,0.06,VWS V14.01,2013-02-14 02:49:00,
2013-02-13 21:54:00,47.7,44.9,29.86,NNW,332,3.0,6.0,90,0.00,,---,0.06,VWS V14.01,2013-02-14 02:54:00,
2013-02-13 21:59:00,47.8,45.0,29.86,NW,322,2.0,5.0,90,0.00,,---,0.06,VWS V14.01,2013-02-14 02:59:00,
2013-02-13 22:04:00,47.6,43.0,29.86,NW,319,5.0,9.0,84,0.00,,---,0.06,VWS V14.01,2013-02-14 03:04:00,
2013-02-13 22:09:00,47.7,40.8,29.87,NW,323,9.0,13.0,77,0.00,,---,0.06,VWS V14.01,2013-02-14 03:09:00,
2013-02-13 22:14:00,47.7,39.5,29.87,WNW,300,12.0,14.0,73,0.00,,---,0.06,VWS V14.01,2013-02-14 03:14:00,
2013-02-13 22:19:00,47.6,39.4,29.87,NW,322,6.0,12.0,73,0.00,,---,0.06,VWS V14.01,2013-02-14 03:19:00,
2013-02-13 22:24:00,47.4,39.2,29.87,WNW,297,5.0,11.0,73,0.00,,---,0.06,VWS V14.01,2013-02-14 03:24:00,
2013-02-13 22:29:00,47.2,38.7,29.87,NNW,337,6.0,10.0,72,0.00,,---,0.06,VWS V14.01,2013-02-14 03:29:00,
2013-02-13 22:34:00,46.9,38.7,29.87,NNW,334,1.0,7.0,73,0.00,,---,0.06,VWS V14.01,2013-02-14 03:34:00,
2013-02-13 22:39:00,46.6,38.4,29.87,NW,304,1.0,4.0,73,0.00,,---,0.06,VWS V14.01,2013-02-14 03:39:00,
2013-02-13 22:44:00,46.3,38.1,29.87,North,4,3.0,5.0,73,0.00,,---,0.06,VWS V14.01,2013-02-14 03:44:00,
2013-02-13 22:49:00,46.1,37.9,29.87,NW,318,4.0,5.0,73,0.00,,---,0.06,VWS V14.01,2013-02-14 03:49:00,
2013-02-13 22:54:00,45.9,38.1,29.88,NNW,333,0.0,4.0,74,0.00,,---,0.06,VWS V14.01,2013-02-14 03:54:00,
2013-02-13 22:59:00,45.6,37.8,29.88,NW,314,1.0,3.0,74,0.00,,---,0.06,VWS V14.01,2013-02-14 03:59:00,
2013-02-13 23:04:00,45.5,37.7,29.88,NNW,337,2.0,3.0,74,0.00,,---,0.06,VWS V14.01,2013-02-14 04:04:00,
2013-02-13 23:09:00,45.5,37.7,29.88,NW,317,1.0,3.0,74,0.00,,---,0.06,VWS V14.01,2013-02-14 04:09:00,
2013-02-13 23:14:00,45.3,37.5,29.88,NW,320,1.0,6.0,74,0.00,,---,0.06,VWS V14.01,2013-02-14 04:14:00,
2013-02-13 23:19:00,45.2,37.1,29.88,NW,323,1.0,6.0,73,0.00,,---,0.06,VWS V14.01,2013-02-14 04:19:00,
2013-02-13 23:24:00,45.1,37.0,29.89,NNW,332,1.0,4.0,73,0.00,,---,0.06,VWS V14.01,2013-02-14 04:24:00,
2013-02-13 23:29:00,44.8,37.0,29.90,WNW,303,3.0,4.0,74,0.00,,---,0.06,VWS V14.01,2013-02-14 04:29:00,
2013-02-13 23:34:00,44.6,37.2,29.90,NW,317,1.0,4.0,75,0.00,,---,0.06,VWS V14.01,2013-02-14 04:34:00,
2013-02-13 23:39:00,44.5,37.1,29.90,NW,318,2.0,5.0,75,0.00,,---,0.06,VWS V14.01,2013-02-14 04:39:00,
2013-02-13 23:44:00,44.2,37.5,29.90,NNW,328,5.0,5.0,77,0.00,,---,0.06,VWS V14.01,2013-02-14 04:44:00,
2013-02-13 23:49:00,43.8,37.4,29.91,NW,305,0.0,3.0,78,0.00,,---,0.06,VWS V14.01,2013-02-14 04:49:00,
2013-02-13 23:54:00,43.5,37.1,29.91,NW,326,1.0,2.0,78,0.00,,---,0.06,VWS V14.01,2013-02-14 04:54:00,
2013-02-13 23:59:00,43.3,37.2,29.91,NW,307,3.0,3.0,79,0.00,,---,0.06,VWS V14.01,2013-02-14 04:59:00,